Torna al catalogo

KUIPER-00094

AttivoComunicazioniLEO
NORAD 64839·PAYLOAD·🇺🇸 United States

Lanciato Jul 16, 2025 da Cape Canaveral Space Force Station

Loading…

Prossimi Passaggi (prossime 24 ore)

TLE

AggiornatoSource: CelesTrak SupGP

Epoca: Sep 15, 2026, 04:23 UTC

1 64839C 25151Z   26258.18331019  .00005077  00000+0  66467-3 0  2581
2 64839  51.9019 130.2505 0001179  95.9120 153.1688 14.79923100    16

Traccia KUIPER-00094 in tempo reale con AllMySat

Download on the App Store